Location: Mercogliano
(40.9167°N, 14.7333°E)
Time: 04:37:36
(UTC+00:00)

CSL-04 Rocket - Pass Details

Date: 18 September 2020
Orbit: 806 x 860 km, 98.9° (Epoch: 25 October)

Event Time Altitude Azimuth Distance (km) Brightness Sun altitude
Rises 18:23:44 0° 177° (S) 3,344 6.6 -15.6°
Reaches altitude 10° 18:26:06 10° 182° (S) 2,423 5.9 -16.0°
Maximum altitude 18:31:21 54° 260° (W) 1,012 4.4 -17.0°
Drops below altitude 10° 18:36:43 10° 337° (NNW) 2,474 6.7 -17.9°
Sets 18:39:10 0° 342° (NNW) 3,421 7.4 -18.4°
